This is the latest recevied weather packets stored in our database for station/object K3RUP-1. If no packets are shown the sender has not sent any weather packets the latest 10 day(s).
| Time | Temp. | Humidity | Pressure | Rain* | Wind** | Luminosity | Snow |
|---|---|---|---|---|---|---|---|
| 1788190423 | 26.67° C | 83% | 1019 hPa | 0 mm | - | 438 W/m² | - |
| 1788190119 | 26.67° C | 83% | 1019.1 hPa | 0 mm | - | 217 W/m² | - |
| 1788189815 | 26.67° C | 82% | 1019.1 hPa | 0 mm | - | 269 W/m² | - |
| 1788189512 | 26.67° C | 83% | 1019.2 hPa | 0 mm | - | 269 W/m² | - |
| 1788189209 | 26.67° C | 83% | 1019.2 hPa | 0 mm | - | 244 W/m² | - |
| 1788188904 | 26.67° C | 83% | 1019.3 hPa | 0 mm | - | 265 W/m² | - |
| 1788188600 | 26.67° C | 82% | 1019.1 hPa | 0 mm | - | 210 W/m² | - |
| 1788188298 | 26.67° C | 83% | 1019.2 hPa | 0 mm | - | 202 W/m² | - |
| 1788187995 | 26.67° C | 83% | 1019.1 hPa | 0 mm | - | 270 W/m² | - |
| 1788187691 | 26.67° C | 83% | 1019.3 hPa | 0 mm | - | 178 W/m² | - |
| 1788187387 | 26.11° C | 84% | 1019.2 hPa | 0 mm | - | 190 W/m² | - |
| 1788187086 | 26.11° C | 86% | 1019.2 hPa | 0 mm | - | 128 W/m² | - |
| 1788186782 | 25.56° C | 87% | 1019.1 hPa | 0 mm | - | 141 W/m² | - |
| 1788186477 | 26.11° C | 86% | 1019.1 hPa | 0 mm | - | 105 W/m² | - |
| 1788186172 | 25.56° C | 87% | 1019.3 hPa | 0 mm | - | 207 W/m² | - |
| 1788185871 | 25.56° C | 87% | 1019.2 hPa | 0 mm | - | 189 W/m² | - |
| 1788185571 | 25.56° C | 88% | 1019.2 hPa | 0 mm | - | 172 W/m² | - |
| 1788185266 | 25° C | 88% | 1019.2 hPa | 0 mm | - | 144 W/m² | - |
| 1788184960 | 25° C | 88% | 1019.2 hPa | 0 mm | - | 123 W/m² | - |
| 1788184658 | 25° C | 88% | 1019.4 hPa | 0 mm | - | 116 W/m² | - |
| 1788184354 | 25° C | 88% | 1019.3 hPa | 0 mm | - | 108 W/m² | - |
| 1788184049 | 25° C | 87% | 1019.2 hPa | 0 mm | - | 103 W/m² | - |
| 1788183746 | 25.56° C | 88% | 1019.3 hPa | 0 mm | - | 95 W/m² | - |
| 1788183444 | 25.56° C | 88% | 1019.4 hPa | 0 mm | - | 107 W/m² | - |
| 1788183139 | 25.56° C | 88% | 1019.2 hPa | 0 mm | - | 133 W/m² | - |
* Rain latest hour (hover to see other rain measurements)
** Current wind speed in m/s (hover to see current wind gust speed)